Location: Kellogg
(38.0159°N, 90.0546°W)
Time: 22:40:50
(UTC+00:00)

SR - All Passes

Search period start: 11 September 2024 00:00
Search period end: 21 September 2024 00:00
Orbit: 579 x 855 km, 66.7° (Epoch: 11 September)

Date Brightness Start Highest point End Pass type
(mag) Time Alt. Az. Time Alt. Az. Time Alt. Az.
11 Sep - 04:00:34 10° N 04:03:44 18° NE 04:07:03 10° E visible
11 Sep - 05:41:10 10° NW 05:45:48 56° WSW 05:50:49 10° SSE visible
11 Sep - 18:29:44 10° SE 18:31:13 12° ESE 18:32:40 10° E daylight
11 Sep - 20:08:17 10° SW 20:12:29 54° WNW 20:16:38 10° NNE daylight
12 Sep - 04:48:18 10° NNW 04:52:59 63° ENE 04:58:01 10° SE visible
12 Sep - 06:31:54 10° WNW 06:34:21 14° WSW 06:36:54 10° SW night (unlit)
12 Sep - 19:15:27 10° SSW 19:19:40 57° ESE 19:23:48 10° NE daylight
12 Sep - 20:59:33 10° W 21:01:47 14° NW 21:04:01 10° NNW daylight
13 Sep - 03:55:55 10° N 03:59:59 28° NE 04:04:19 10° ESE visible
13 Sep - 05:37:30 10° NW 05:41:45 32° WSW 05:46:17 10° S night (unlit)
13 Sep - 18:23:42 10° SSE 18:27:00 22° ESE 18:30:15 10° ENE daylight
13 Sep - 20:04:49 10° WSW 20:08:35 30° NW 20:12:21 10° N daylight
14 Sep - 03:04:15 10° NNE 03:06:46 14° NE 03:09:21 10° E visible
14 Sep - 04:44:15 10° NNW 04:49:00 76° WSW 04:54:08 10° SSE visible
14 Sep - 19:11:20 10° SSW 19:15:36 75° WNW 19:19:50 10° NNE daylight
15 Sep - 03:51:32 10° NNW 03:56:06 47° ENE 04:01:01 10° SE visible
15 Sep - 05:34:15 10° WNW 05:37:37 19° WSW 05:41:08 10° SSW night (unlit)
15 Sep - 18:18:48 10° S 18:22:49 40° ESE 18:26:47 10° NE daylight
15 Sep - 20:01:49 10° W 20:04:45 18° NW 20:07:41 10° N daylight
16 Sep - 02:59:17 10° N 03:03:00 23° NE 03:06:55 10° ESE visible
16 Sep - 04:40:23 10° NW 04:44:55 43° WSW 04:49:48 10° S visible
16 Sep - 17:27:36 10° SE 17:30:11 16° ESE 17:32:46 10° ENE daylight
16 Sep - 19:07:35 10° SW 19:11:35 40° WNW 19:15:36 10° NNE daylight
17 Sep - 02:08:16 10° NNE 02:09:40 11° NE 02:11:05 10° ENE visible
17 Sep - 03:47:18 10° NNW 03:52:05 82° ENE 03:57:15 10° SSE visible
17 Sep - 05:32:37 10° W 05:33:20 10° WSW 05:34:04 10° WSW night (unlit)
17 Sep - 18:14:23 10° SSW 18:18:39 79° ESE 18:22:53 10° NNE daylight
17 Sep - 19:59:54 10° WNW 20:00:58 11° NW 20:02:04 10° NNW daylight
18 Sep - 02:54:42 10° N 02:59:05 36° ENE 03:03:47 10° SE visible
18 Sep - 04:36:47 10° NW 04:40:43 25° WSW 04:44:55 10° SSW visible
18 Sep - 17:22:11 10° S 17:25:53 29° ESE 17:29:33 10° NE daylight
18 Sep - 19:04:13 10° WSW 19:07:38 23° NW 19:11:03 10° N daylight
19 Sep - 02:02:39 10° N 02:05:53 18° NE 02:09:16 10° E visible
19 Sep - 03:43:14 10° NW 03:47:58 58° WSW 03:53:03 10° SSE visible
19 Sep - 16:31:59 10° ESE 16:33:17 11° ESE 16:34:35 10° E daylight
19 Sep - 18:10:21 10° SW 18:14:31 55° WNW 18:18:42 10° NNE daylight
20 Sep - 02:50:18 10° NNW 02:55:02 62° ENE 03:00:10 10° SE visible
20 Sep - 04:33:47 10° WNW 04:36:26 14° WSW 04:39:09 10° SW visible
20 Sep - 17:17:27 10° SSW 17:21:37 55° ESE 17:25:45 10° NE daylight
20 Sep - 19:01:27 10° W 19:03:44 14° NW 19:06:02 10° NNW daylight
